Volver al catálogo

NAVSTAR 20

USA 63

ActivoNavegaciónMEO
NORAD 20724·PAYLOAD·🇺🇸 United States

Lanzado Aug 2, 1990 desde Cape Canaveral Space Force Station

Loading…

Próximos Pases (próximas 24 horas)

TLE

EnvejeciendoSource: Space-Track

Época: Aug 29, 2026, 14:30 UTC

1 20724U 90068A   26241.60442122  .00000011  00000-0  00000+0 0  9995
2 20724  54.9952  72.0095 0035308 332.7825  34.3100  1.87186396251281

Sigue NAVSTAR 20 en tiempo real con AllMySat

Download on the App Store